01.01.2019 00:15;158869
01.01.2019 00:30;155945
01.01.2019 00:45;149611
01.01.2019 01:00;144620
01.01.2019 01:15;139177
01.01.2019 01:30;133261
01.01.2019 01:45;128375
01.01.2019 02:00;121086
01.01.2019 02:15;114580
01.01.2019 02:30;109826
01.01.2019 02:45;107461
01.01.2019 03:00;103423
01.01.2019 03:15;99277
01.01.2019 03:30;97675
01.01.2019 03:45;96706
01.01.2019 04:00;94535
01.01.2019 04:15;94419
01.01.2019 04:30;93729
01.01.2019 04:45;93268
01.01.2019 05:00;92608
01.01.2019 05:15;90445
01.01.2019 05:30;88962
01.01.2019 05:45;86805
01.01.2019 06:00;83582
01.01.2019 06:15;77904
01.01.2019 06:30;77314
01.01.2019 06:45;79903
01.01.2019 07:00;79724
01.01.2019 07:15;82451
01.01.2019 07:30;78101
01.01.2019 07:45;77262
01.01.2019 08:00;80203
01.01.2019 08:15;78548
01.01.2019 08:30;77948
01.01.2019 08:45;78885
01.01.2019 09:00;83724
01.01.2019 09:15;86662
01.01.2019 09:30;86962
01.01.2019 09:45;88763
01.01.2019 10:00;87958
01.01.2019 10:15;86147
01.01.2019 10:30;93477
01.01.2019 10:45;95807
01.01.2019 11:00;99829
01.01.2019 11:15;99143
01.01.2019 11:30;97954
01.01.2019 11:45;100999
01.01.2019 12:00;104468
01.01.2019 12:15;100269
01.01.2019 12:30;100080
01.01.2019 12:45;104093
01.01.2019 13:00;97000
01.01.2019 13:15;87217
01.01.2019 13:30;90036
01.01.2019 13:45;96294
01.01.2019 14:00;100752
01.01.2019 14:15;100354
01.01.2019 14:30;102778
01.01.2019 14:45;103994
01.01.2019 15:00;104880
01.01.2019 15:15;105544
01.01.2019 15:30;106246
01.01.2019 15:45;100174
01.01.2019 16:00;97351
01.01.2019 16:15;96862
01.01.2019 16:30;94753
01.01.2019 16:45;96794
01.01.2019 17:00;97852
01.01.2019 17:15;101632
01.01.2019 17:30;100273
01.01.2019 17:45;101193
01.01.2019 18:00;107925
01.01.2019 18:15;109172
01.01.2019 18:30;116204
01.01.2019 18:45;115671
01.01.2019 19:00;119269
01.01.2019 19:15;126928
01.01.2019 19:30;113612
01.01.2019 19:45;103817
01.01.2019 20:00;101227
01.01.2019 20:15;103307
01.01.2019 20:30;99764
01.01.2019 20:45;91389
01.01.2019 21:00;94906
01.01.2019 21:15;89550
01.01.2019 21:30;90164
01.01.2019 21:45;95881
01.01.2019 22:00;106294
01.01.2019 22:15;108510
01.01.2019 22:30;98464
01.01.2019 22:45;92796
01.01.2019 23:00;92092
01.01.2019 23:15;94236
01.01.2019 23:30;91516
01.01.2019 23:45;88906
02.01.2019 00:00;75207
02.01.2019 00:15;73438
02.01.2019 00:30;73034
02.01.2019 00:45;70833
02.01.2019 01:00;68639
02.01.2019 01:15;73572
02.01.2019 01:30;71504
02.01.2019 01:45;67176
02.01.2019 02:00;62372
02.01.2019 02:15;62459
02.01.2019 02:30;66981
02.01.2019 02:45;61994
02.01.2019 03:00;61945
02.01.2019 03:15;62216
02.01.2019 03:30;62491
02.01.2019 03:45;62537
02.01.2019 04:00;63408
02.01.2019 04:15;66259
02.01.2019 04:30;71792
02.01.2019 04:45;80579
02.01.2019 05:00;84863
02.01.2019 05:15;93381
02.01.2019 05:30;95801
02.01.2019 05:45;103687
02.01.2019 06:00;102342
02.01.2019 06:15;92078
02.01.2019 06:30;96851
02.01.2019 06:45;106920
02.01.2019 07:00;113379
02.01.2019 07:15;118895
02.01.2019 07:30;124676
02.01.2019 07:45;132885
02.01.2019 08:00;139426
02.01.2019 08:15;127518
02.01.2019 08:30;124331
02.01.2019 08:45;127308
02.01.2019 09:00;127175
02.01.2019 09:15;126150
02.01.2019 09:30;122622
02.01.2019 09:45;117401
02.01.2019 10:00;115592
02.01.2019 10:15;118657
02.01.2019 10:30;115838
02.01.2019 10:45;114856
02.01.2019 11:00;116382
02.01.2019 11:15;116358
02.01.2019 11:30;107014
02.01.2019 11:45;110638
02.01.2019 12:00;117390
02.01.2019 12:15;116627
02.01.2019 12:30;117635
02.01.2019 12:45;117431
02.01.2019 13:00;112044
02.01.2019 13:15;108140
02.01.2019 13:30;106555
02.01.2019 13:45;106340
02.01.2019 14:00;104393
02.01.2019 14:15;103474
02.01.2019 14:30;108041
02.01.2019 14:45;112950
02.01.2019 15:00;116775
02.01.2019 15:15;118237
02.01.2019 15:30;122638
02.01.2019 15:45;130804
02.01.2019 16:00;131144
02.01.2019 16:15;139614
02.01.2019 16:30;144055
02.01.2019 16:45;148042
02.01.2019 17:00;146323
02.01.2019 17:15;151992
02.01.2019 17:30;162574
02.01.2019 17:45;168324
02.01.2019 18:00;167191
02.01.2019 18:15;169433
02.01.2019 18:30;174491
02.01.2019 18:45;180005
02.01.2019 19:00;183620
02.01.2019 19:15;181120
02.01.2019 19:30;166055
02.01.2019 19:45;160359
02.01.2019 20:00;161336
02.01.2019 20:15;159539
02.01.2019 20:30;149643
02.01.2019 20:45;143105
02.01.2019 21:00;144373
02.01.2019 21:15;144593
02.01.2019 21:30;142905
02.01.2019 21:45;145420
02.01.2019 22:00;152625
02.01.2019 22:15;162259
02.01.2019 22:30;161201
02.01.2019 22:45;158473
02.01.2019 23:00;154103
02.01.2019 23:15;154636
02.01.2019 23:30;157160
02.01.2019 23:45;154581
03.01.2019 00:00;151762
03.01.2019 00:15;148012
03.01.2019 00:30;149326
03.01.2019 00:45;153064
03.01.2019 01:00;152923
03.01.2019 01:15;151907
03.01.2019 01:30;151243
03.01.2019 01:45;146864
03.01.2019 02:00;140343
03.01.2019 02:15;137352
03.01.2019 02:30;133065
03.01.2019 02:45;133199
03.01.2019 03:00;136510
03.01.2019 03:15;139443
03.01.2019 03:30;138519
03.01.2019 03:45;135561
03.01.2019 04:00;135299
03.01.2019 04:15;131778
03.01.2019 04:30;133222
03.01.2019 04:45;133119
03.01.2019 05:00;133710
03.01.2019 05:15;141748
03.01.2019 05:30;150058
03.01.2019 05:45;149880
03.01.2019 06:00;147011
03.01.2019 06:15;147900
03.01.2019 06:30;151101
03.01.2019 06:45;155109
03.01.2019 07:00;159992
03.01.2019 07:15;164121
03.01.2019 07:30;175579
03.01.2019 07:45;183336
03.01.2019 08:00;190089
03.01.2019 08:15;195467
03.01.2019 08:30;198278
03.01.2019 08:45;202034
03.01.2019 09:00;204183
03.01.2019 09:15;202486
03.01.2019 09:30;199809
03.01.2019 09:45;199890
03.01.2019 10:00;204801
03.01.2019 10:15;206399
03.01.2019 10:30;204672
03.01.2019 10:45;201259
03.01.2019 11:00;206832
03.01.2019 11:15;210561
03.01.2019 11:30;214836
03.01.2019 11:45;218525
03.01.2019 12:00;217900
03.01.2019 12:15;214133
03.01.2019 12:30;215104
03.01.2019 12:45;218466
03.01.2019 13:00;217056
03.01.2019 13:15;206570
03.01.2019 13:30;201172
03.01.2019 13:45;198723
03.01.2019 14:00;192707
03.01.2019 14:15;190370
03.01.2019 14:30;187955
03.01.2019 14:45;186282
03.01.2019 15:00;184958
03.01.2019 15:15;187303
03.01.2019 15:30;190602
03.01.2019 15:45;193377
03.01.2019 16:00;197937
03.01.2019 16:15;198077
03.01.2019 16:30;205502
03.01.2019 16:45;205477
03.01.2019 17:00;209132
03.01.2019 17:15;217757
03.01.2019 17:30;216088
03.01.2019 17:45;214195
03.01.2019 18:00;219858
03.01.2019 18:15;217703
03.01.2019 18:30;217873
03.01.2019 18:45;216563
03.01.2019 19:00;210343
03.01.2019 19:15;199933
03.01.2019 19:30;199456
03.01.2019 19:45;194611
03.01.2019 20:00;195425
03.01.2019 20:15;190889
03.01.2019 20:30;188431
03.01.2019 20:45;183309
03.01.2019 21:00;179637
03.01.2019 21:15;172939
03.01.2019 21:30;167550
03.01.2019 21:45;174550
03.01.2019 22:00;185427
03.01.2019 22:15;188305
03.01.2019 22:30;181162
03.01.2019 22:45;175113
03.01.2019 23:00;172226
03.01.2019 23:15;169123
03.01.2019 23:30;163484
03.01.2019 23:45;156940
04.01.2019 00:00;158571
04.01.2019 00:15;159305
04.01.2019 00:30;162436
04.01.2019 00:45;160954
04.01.2019 01:00;162265
04.01.2019 01:15;163531
04.01.2019 01:30;161561
04.01.2019 01:45;161361
04.01.2019 02:00;162378
04.01.2019 02:15;163333
04.01.2019 02:30;164086
04.01.2019 02:45;165979
04.01.2019 03:00;164675
04.01.2019 03:15;161182
04.01.2019 03:30;157339
04.01.2019 03:45;153964
04.01.2019 04:00;155034
04.01.2019 04:15;151963
04.01.2019 04:30;146151
04.01.2019 04:45;144832
04.01.2019 05:00;143263
04.01.2019 05:15;143340
04.01.2019 05:30;136105
04.01.2019 05:45;126243
04.01.2019 06:00;121346
04.01.2019 06:15;126387
04.01.2019 06:30;131035
04.01.2019 06:45;138510
04.01.2019 07:00;148412
04.01.2019 07:15;161327
04.01.2019 07:30;166931
04.01.2019 07:45;171321
04.01.2019 08:00;176019
04.01.2019 08:15;184035
04.01.2019 08:30;186330
04.01.2019 08:45;189576
04.01.2019 09:00;190977
04.01.2019 09:15;190667
04.01.2019 09:30;187398
04.01.2019 09:45;184832
04.01.2019 10:00;183431
04.01.2019 10:15;184323
04.01.2019 10:30;187081
04.01.2019 10:45;183130
04.01.2019 11:00;178264
04.01.2019 11:15;179669
04.01.2019 11:30;174551
04.01.2019 11:45;173399
04.01.2019 12:00;170864
04.01.2019 12:15;164765
04.01.2019 12:30;166021
04.01.2019 12:45;174544
04.01.2019 13:00;179863
04.01.2019 13:15;177461
04.01.2019 13:30;181381
04.01.2019 13:45;193280
04.01.2019 14:00;204704
04.01.2019 14:15;212407
04.01.2019 14:30;216336
04.01.2019 14:45;208176
04.01.2019 15:00;206831
04.01.2019 15:15;207637
04.01.2019 15:30;194705
04.01.2019 15:45;189932
04.01.2019 16:00;182135
04.01.2019 16:15;190073
04.01.2019 16:30;191358
04.01.2019 16:45;185280
04.01.2019 17:00;189701
04.01.2019 17:15;192236
04.01.2019 17:30;192406
04.01.2019 17:45;189636
04.01.2019 18:00;190757
04.01.2019 18:15;194619
04.01.2019 18:30;199447
04.01.2019 18:45;194923
04.01.2019 19:00;189304
04.01.2019 19:15;181385
04.01.2019 19:30;179575
04.01.2019 19:45;175790
04.01.2019 20:00;168723
04.01.2019 20:15;164024
04.01.2019 20:30;159400
04.01.2019 20:45;160045
04.01.2019 21:00;157141
04.01.2019 21:15;156414
04.01.2019 21:30;152850
04.01.2019 21:45;154694
04.01.2019 22:00;159403
04.01.2019 22:15;171470
04.01.2019 22:30;171149
04.01.2019 22:45;170831
04.01.2019 23:00;164342
04.01.2019 23:15;152754
04.01.2019 23:30;144253
04.01.2019 23:45;139554
05.01.2019 00:00;130221
05.01.2019 00:15;123808
05.01.2019 00:30;120577
05.01.2019 00:45;115981
05.01.2019 01:00;111835
05.01.2019 01:15;107519
05.01.2019 01:30;104170
05.01.2019 01:45;102156
05.01.2019 02:00;103576
05.01.2019 02:15;97255
05.01.2019 02:30;97877
05.01.2019 02:45;98358
05.01.2019 03:00;93684
05.01.2019 03:15;91418
05.01.2019 03:30;89173
05.01.2019 03:45;84916
05.01.2019 04:00;79569
05.01.2019 04:15;80899
05.01.2019 04:30;77040
05.01.2019 04:45;75583
05.01.2019 05:00;77006
05.01.2019 05:15;78586
05.01.2019 05:30;76788
05.01.2019 05:45;73934
05.01.2019 06:00;75199
05.01.2019 06:15;77413
05.01.2019 06:30;78729
05.01.2019 06:45;80305
05.01.2019 07:00;81312
05.01.2019 07:15;83771
05.01.2019 07:30;88279
05.01.2019 07:45;91587
05.01.2019 08:00;95079
05.01.2019 08:15;97380
05.01.2019 08:30;98954
05.01.2019 08:45;102035
05.01.2019 09:00;102356
05.01.2019 09:15;105846
05.01.2019 09:30;109702
05.01.2019 09:45;112659
05.01.2019 10:00;117317
05.01.2019 10:15;122885
05.01.2019 10:30;130515
05.01.2019 10:45;141439
05.01.2019 11:00;131436
05.01.2019 11:15;119074
05.01.2019 11:30;121094
05.01.2019 11:45;121734
05.01.2019 12:00;126841
05.01.2019 12:15;133906
05.01.2019 12:30;132793
05.01.2019 12:45;135860
05.01.2019 13:00;133342
05.01.2019 13:15;121565
05.01.2019 13:30;110842
05.01.2019 13:45;113007
05.01.2019 14:00;122247
05.01.2019 14:15;116986
05.01.2019 14:30;118918
05.01.2019 14:45;120288
05.01.2019 15:00;117544
05.01.2019 15:15;119112
05.01.2019 15:30;119254
05.01.2019 15:45;108439
05.01.2019 16:00;108788
05.01.2019 16:15;114430
05.01.2019 16:30;115920
05.01.2019 16:45;123208
05.01.2019 17:00;129885
05.01.2019 17:15;134677
05.01.2019 17:30;138246
05.01.2019 17:45;140936
05.01.2019 18:00;138178
05.01.2019 18:15;134504
05.01.2019 18:30;132742
05.01.2019 18:45;138213
05.01.2019 19:00;138786
05.01.2019 19:15;133598
05.01.2019 19:30;131856
05.01.2019 19:45;123803
05.01.2019 20:00;119017
05.01.2019 20:15;115166
05.01.2019 20:30;108620
05.01.2019 20:45;104308
05.01.2019 21:00;101759
05.01.2019 21:15;104010
05.01.2019 21:30;117356
05.01.2019 21:45;123637
05.01.2019 22:00;127451
05.01.2019 22:15;133586
05.01.2019 22:30;122856
05.01.2019 22:45;114684
05.01.2019 23:00;114588
05.01.2019 23:15;112702
05.01.2019 23:30;113128
05.01.2019 23:45;112216
06.01.2019 00:00;106931
06.01.2019 00:15;105520
06.01.2019 00:30;101032
06.01.2019 00:45;98073
06.01.2019 01:00;97896
06.01.2019 01:15;94198
06.01.2019 01:30;88689
06.01.2019 01:45;84663
06.01.2019 02:00;84566
06.01.2019 02:15;82992
06.01.2019 02:30;83900
06.01.2019 02:45;81603
06.01.2019 03:00;83453
06.01.2019 03:15;83996
06.01.2019 03:30;77777
06.01.2019 03:45;75623
06.01.2019 04:00;78955
06.01.2019 04:15;79711
06.01.2019 04:30;73618
06.01.2019 04:45;72002
06.01.2019 05:00;71088
06.01.2019 05:15;70514
06.01.2019 05:30;73405
06.01.2019 05:45;76442
06.01.2019 06:00;80656
06.01.2019 06:15;78325
06.01.2019 06:30;89814
06.01.2019 06:45;96346
06.01.2019 07:00;98701
06.01.2019 07:15;99386
06.01.2019 07:30;99541
06.01.2019 07:45;99758
06.01.2019 08:00;101587
06.01.2019 08:15;98509
06.01.2019 08:30;101356
06.01.2019 08:45;110363
06.01.2019 09:00;116543
06.01.2019 09:15;118877
06.01.2019 09:30;122206
06.01.2019 09:45;124121
06.01.2019 10:00;127014
06.01.2019 10:15;131685
06.01.2019 10:30;133993
06.01.2019 10:45;133567
06.01.2019 11:00;133282
06.01.2019 11:15;131690
06.01.2019 11:30;133578
06.01.2019 11:45;133813
06.01.2019 12:00;133560
06.01.2019 12:15;134144
06.01.2019 12:30;132746
06.01.2019 12:45;131669
06.01.2019 13:00;133055
06.01.2019 13:15;136863
06.01.2019 13:30;139078
06.01.2019 13:45;138364
06.01.2019 14:00;138056
06.01.2019 14:15;142733
06.01.2019 14:30;144667
06.01.2019 14:45;143173
06.01.2019 15:00;142041
06.01.2019 15:15;144797
06.01.2019 15:30;147727
06.01.2019 15:45;148068
06.01.2019 16:00;141616
06.01.2019 16:15;142567
06.01.2019 16:30;148809
06.01.2019 16:45;154219
06.01.2019 17:00;154946
06.01.2019 17:15;158956
06.01.2019 17:30;159646
06.01.2019 17:45;156657
06.01.2019 18:00;159002
06.01.2019 18:15;163063
06.01.2019 18:30;162386
06.01.2019 18:45;160198
06.01.2019 19:00;161579
06.01.2019 19:15;162993
06.01.2019 19:30;158621
06.01.2019 19:45;158678
06.01.2019 20:00;161293
06.01.2019 20:15;155265
06.01.2019 20:30;150811
06.01.2019 20:45;145932
06.01.2019 21:00;143472
06.01.2019 21:15;140938
06.01.2019 21:30;141714
06.01.2019 21:45;145043
06.01.2019 22:00;150969
06.01.2019 22:15;160087
06.01.2019 22:30;155341
06.01.2019 22:45;153214
06.01.2019 23:00;151684
06.01.2019 23:15;146819
06.01.2019 23:30;142207
06.01.2019 23:45;138019
07.01.2019 00:00;133091
07.01.2019 00:15;131187
07.01.2019 00:30;129566
07.01.2019 00:45;126873
07.01.2019 01:00;123689
07.01.2019 01:15;122680
07.01.2019 01:30;122728
07.01.2019 01:45;120039
07.01.2019 02:00;118548
07.01.2019 02:15;117908
07.01.2019 02:30;118199
07.01.2019 02:45;118501
07.01.2019 03:00;118734
07.01.2019 03:15;117592
07.01.2019 03:30;116317
07.01.2019 03:45;117322
07.01.2019 04:00;118830
07.01.2019 04:15;119945
07.01.2019 04:30;122968
07.01.2019 04:45;125330
07.01.2019 05:00;128917
07.01.2019 05:15;131113
07.01.2019 05:30;129542
07.01.2019 05:45;132073
07.01.2019 06:00;140678
07.01.2019 06:15;152229
07.01.2019 06:30;169148
07.01.2019 06:45;180017
07.01.2019 07:00;194783
07.01.2019 07:15;205478
07.01.2019 07:30;209512
07.01.2019 07:45;214409
07.01.2019 08:00;218361
07.01.2019 08:15;220933
07.01.2019 08:30;222955
07.01.2019 08:45;222977
07.01.2019 09:00;221274
07.01.2019 09:15;219742
07.01.2019 09:30;218256
07.01.2019 09:45;217917
07.01.2019 10:00;220516
07.01.2019 10:15;220905
07.01.2019 10:30;221932
07.01.2019 10:45;224875
07.01.2019 11:00;227184
07.01.2019 11:15;228796
07.01.2019 11:30;226599
07.01.2019 11:45;227165
07.01.2019 12:00;229376
07.01.2019 12:15;228960
07.01.2019 12:30;226798
07.01.2019 12:45;223535
07.01.2019 13:00;217609
07.01.2019 13:15;213232
07.01.2019 13:30;209325
07.01.2019 13:45;204428
07.01.2019 14:00;198950
07.01.2019 14:15;197377
07.01.2019 14:30;194756
07.01.2019 14:45;194374
07.01.2019 15:00;188069
07.01.2019 15:15;186203
07.01.2019 15:30;189493
07.01.2019 15:45;191094
07.01.2019 16:00;187785
07.01.2019 16:15;192147
07.01.2019 16:30;198527
07.01.2019 16:45;205654
07.01.2019 17:00;209861
07.01.2019 17:15;213741
07.01.2019 17:30;215206
07.01.2019 17:45;219433
07.01.2019 18:00;218278
07.01.2019 18:15;215121
07.01.2019 18:30;212280
07.01.2019 18:45;204297
07.01.2019 19:00;204707
07.01.2019 19:15;199642
07.01.2019 19:30;192174
07.01.2019 19:45;181748
07.01.2019 20:00;178021
07.01.2019 20:15;173735
07.01.2019 20:30;162469
07.01.2019 20:45;154565
07.01.2019 21:00;150610
07.01.2019 21:15;141394
07.01.2019 21:30;139922
07.01.2019 21:45;142420
07.01.2019 22:00;143392
07.01.2019 22:15;148834
07.01.2019 22:30;146226
07.01.2019 22:45;142109
07.01.2019 23:00;135321
07.01.2019 23:15;129177
07.01.2019 23:30;123024
07.01.2019 23:45;116702
08.01.2019 00:00;112910
08.01.2019 00:15;106164
08.01.2019 00:30;100728
08.01.2019 00:45;97289
08.01.2019 01:00;97820
08.01.2019 01:15;100882
08.01.2019 01:30;94525
08.01.2019 01:45;90491
08.01.2019 02:00;86457
08.01.2019 02:15;84971
08.01.2019 02:30;85382
08.01.2019 02:45;83835
08.01.2019 03:00;82806
08.01.2019 03:15;82510
08.01.2019 03:30;82918
08.01.2019 03:45;83523
08.01.2019 04:00;83866
08.01.2019 04:15;86078
08.01.2019 04:30;86289
08.01.2019 04:45;86674
08.01.2019 05:00;88066
08.01.2019 05:15;91163
08.01.2019 05:30;97024
08.01.2019 05:45;102063
08.01.2019 06:00;114509
08.01.2019 06:15;123589
08.01.2019 06:30;135454
08.01.2019 06:45;146269
08.01.2019 07:00;152894
08.01.2019 07:15;161960
08.01.2019 07:30;168612
08.01.2019 07:45;156822
08.01.2019 08:00;152649
08.01.2019 08:15;151912
08.01.2019 08:30;151305
08.01.2019 08:45;143409
08.01.2019 09:00;139637
08.01.2019 09:15;133870
08.01.2019 09:30;130772
08.01.2019 09:45;125961
08.01.2019 10:00;132065
08.01.2019 10:15;137357
08.01.2019 10:30;138441
08.01.2019 10:45;133823
08.01.2019 11:00;134685
08.01.2019 11:15;141287
08.01.2019 11:30;143388
08.01.2019 11:45;140795
08.01.2019 12:00;138735
08.01.2019 12:15;139073
08.01.2019 12:30;141761
08.01.2019 12:45;138262
08.01.2019 13:00;132458
08.01.2019 13:15;132454
08.01.2019 13:30;133143
08.01.2019 13:45;133530
08.01.2019 14:00;133647
08.01.2019 14:15;133957
08.01.2019 14:30;132332
08.01.2019 14:45;133265
08.01.2019 15:00;131808
08.01.2019 15:15;134593
08.01.2019 15:30;133907
08.01.2019 15:45;135503
08.01.2019 16:00;133804
08.01.2019 16:15;131627
08.01.2019 16:30;134901
08.01.2019 16:45;137729
08.01.2019 17:00;137780
08.01.2019 17:15;154122
08.01.2019 17:30;164364
08.01.2019 17:45;158159
08.01.2019 18:00;155818
08.01.2019 18:15;151948
08.01.2019 18:30;152529
08.01.2019 18:45;151960
08.01.2019 19:00;152929
08.01.2019 19:15;147452
08.01.2019 19:30;147783
08.01.2019 19:45;143001
08.01.2019 20:00;141475
08.01.2019 20:15;137958
08.01.2019 20:30;134304
08.01.2019 20:45;128944
08.01.2019 21:00;124432
08.01.2019 21:15;121423
08.01.2019 21:30;120486
08.01.2019 21:45;119229
08.01.2019 22:00;123861
08.01.2019 22:15;125036
08.01.2019 22:30;128423
08.01.2019 22:45;117349
08.01.2019 23:00;111820
08.01.2019 23:15;106020
08.01.2019 23:30;115138
08.01.2019 23:45;104473
09.01.2019 00:00;99387
09.01.2019 00:15;97882
09.01.2019 00:30;94038
09.01.2019 00:45;94355
09.01.2019 01:00;93106
09.01.2019 01:15;88992
09.01.2019 01:30;88443
09.01.2019 01:45;84097
09.01.2019 02:00;84925
09.01.2019 02:15;83342
09.01.2019 02:30;81249
09.01.2019 02:45;83233
09.01.2019 03:00;83660
09.01.2019 03:15;81891
09.01.2019 03:30;83999
09.01.2019 03:45;84313
09.01.2019 04:00;87643
09.01.2019 04:15;86526
09.01.2019 04:30;88755
09.01.2019 04:45;89056
09.01.2019 05:00;90022
09.01.2019 05:15;91856
09.01.2019 05:30;92295
09.01.2019 05:45;93151
09.01.2019 06:00;97096
09.01.2019 06:15;103873
09.01.2019 06:30;114059
09.01.2019 06:45;128066
09.01.2019 07:00;132580
09.01.2019 07:15;138609
09.01.2019 07:30;133830
09.01.2019 07:45;132340
09.01.2019 08:00;132012
09.01.2019 08:15;139046
09.01.2019 08:30;141106
09.01.2019 08:45;143157
09.01.2019 09:00;150104
09.01.2019 09:15;149946
09.01.2019 09:30;150329
09.01.2019 09:45;148215
09.01.2019 10:00;145179
09.01.2019 10:15;146043
09.01.2019 10:30;141400
09.01.2019 10:45;138261
09.01.2019 11:00;145698
09.01.2019 11:15;147185
09.01.2019 11:30;149520
09.01.2019 11:45;149804
09.01.2019 12:00;152817
09.01.2019 12:15;145547
09.01.2019 12:30;143822
09.01.2019 12:45;143541
09.01.2019 13:00;142317
09.01.2019 13:15;131422
09.01.2019 13:30;133930
09.01.2019 13:45;141900
09.01.2019 14:00;134341
09.01.2019 14:15;135145
09.01.2019 14:30;138989
09.01.2019 14:45;141616
09.01.2019 15:00;143112
09.01.2019 15:15;146189
09.01.2019 15:30;147090
09.01.2019 15:45;150550
09.01.2019 16:00;156322
09.01.2019 16:15;159289
09.01.2019 16:30;156280
09.01.2019 16:45;164063
09.01.2019 17:00;170727
09.01.2019 17:15;177537
09.01.2019 17:30;183582
09.01.2019 17:45;175447
09.01.2019 18:00;169873
09.01.2019 18:15;167247
09.01.2019 18:30;174846
09.01.2019 18:45;178126
09.01.2019 19:00;173565
09.01.2019 19:15;175433
09.01.2019 19:30;176778
09.01.2019 19:45;172510
09.01.2019 20:00;168855
09.01.2019 20:15;164860
09.01.2019 20:30;161291
09.01.2019 20:45;155880
09.01.2019 21:00;150862
09.01.2019 21:15;146017
09.01.2019 21:30;144915
09.01.2019 21:45;152864
09.01.2019 22:00;154084
09.01.2019 22:15;157469
09.01.2019 22:30;154101
09.01.2019 22:45;150802
09.01.2019 23:00;148297
09.01.2019 23:15;144391
09.01.2019 23:30;136352
09.01.2019 23:45;134211
10.01.2019 00:00;132801
10.01.2019 00:15;129905
10.01.2019 00:30;132103
10.01.2019 00:45;129046
10.01.2019 01:00;117361
10.01.2019 01:15;117746
10.01.2019 01:30;118432
10.01.2019 01:45;113480
10.01.2019 02:00;112493
10.01.2019 02:15;116473
10.01.2019 02:30;116780
10.01.2019 02:45;116542
10.01.2019 03:00;121622
10.01.2019 03:15;119851
10.01.2019 03:30;116008
10.01.2019 03:45;114271
10.01.2019 04:00;115244
10.01.2019 04:15;118797
10.01.2019 04:30;122335
10.01.2019 04:45;128043
10.01.2019 05:00;129029
10.01.2019 05:15;130747
10.01.2019 05:30;130305
10.01.2019 05:45;136369
10.01.2019 06:00;146351
10.01.2019 06:15;160211
10.01.2019 06:30;169436
10.01.2019 06:45;177911
10.01.2019 07:00;185408
10.01.2019 07:15;197152
10.01.2019 07:30;202849
10.01.2019 07:45;204280
10.01.2019 08:00;210030
10.01.2019 08:15;209959
10.01.2019 08:30;211045
10.01.2019 08:45;207603
10.01.2019 09:00;203361
10.01.2019 09:15;196094
10.01.2019 09:30;193412
10.01.2019 09:45;193185
10.01.2019 10:00;196556
10.01.2019 10:15;200262
10.01.2019 10:30;203921
10.01.2019 10:45;202156
10.01.2019 11:00;202943
10.01.2019 11:15;205976
10.01.2019 11:30;210463
10.01.2019 11:45;214710
10.01.2019 12:00;219616
10.01.2019 12:15;223942
10.01.2019 12:30;224399
10.01.2019 12:45;222466
10.01.2019 13:00;222039
10.01.2019 13:15;226447
10.01.2019 13:30;225264
10.01.2019 13:45;221579
10.01.2019 14:00;219299
10.01.2019 14:15;216927
10.01.2019 14:30;212959
10.01.2019 14:45;209848
10.01.2019 15:00;210687
10.01.2019 15:15;211309
10.01.2019 15:30;210617
10.01.2019 15:45;213061
10.01.2019 16:00;217382
10.01.2019 16:15;219507
10.01.2019 16:30;223341
10.01.2019 16:45;225737
10.01.2019 17:00;230902
10.01.2019 17:15;243306
10.01.2019 17:30;254853
10.01.2019 17:45;260012
10.01.2019 18:00;264454
10.01.2019 18:15;270814
10.01.2019 18:30;271546
10.01.2019 18:45;271081
10.01.2019 19:00;275328
10.01.2019 19:15;275753
10.01.2019 19:30;275404
10.01.2019 19:45;273053
10.01.2019 20:00;269970
10.01.2019 20:15;265526
10.01.2019 20:30;260919
10.01.2019 20:45;255923
10.01.2019 21:00;250273
10.01.2019 21:15;244740
10.01.2019 21:30;239317
10.01.2019 21:45;242455
10.01.2019 22:00;245039
10.01.2019 22:15;253267
10.01.2019 22:30;249060
10.01.2019 22:45;242527
10.01.2019 23:00;236297
10.01.2019 23:15;228240
10.01.2019 23:30;223339
10.01.2019 23:45;218298
11.01.2019 00:00;213448
11.01.2019 00:15;208648
11.01.2019 00:30;204108
11.01.2019 00:45;199032
11.01.2019 01:00;195275
11.01.2019 01:15;191860
11.01.2019 01:30;188298
11.01.2019 01:45;184102